Flag for Brazil Weather past 2 weeks in Cuiabá, Mato Grosso, Brazil

Now
63 °F

Clear.


Feels Like: 63 °F
Forecast: 64 / 83 °F
Wind: 3 mph from Northeast

Location: Cuiaba Aeroporto

Current Time: Jul 6, 2015 at 3:21:22 AM

Latest Report: Jul 6, 2015 at 3:00 AM


Visibility: 10 mi

Pressure: 29.95 "Hg

Humidity: 88%

Dew point: 59 °F

Location of CuiabáLocation

Historic Weather in Cuiabá — Graph

°F

Cuiabá temperature yesterday

Maximum temperature yesterday: 66 °F (at 4:00 PM)
Minimum temperature yesterday: 59 °F (at 4:00 AM)
Average temperature yesterday: 63 °F

Past Weeks' High & Low Weather Summary

 TemperatureHumidityPressure
High93 °F (Jul 2, 12:00 PM)100% (Jun 21, 6:00 AM)30.18 "Hg (Jun 21, 6:00 AM)
Low59 °F (Jul 5, 4:00 AM)22% (Jun 24, 3:00 PM)29.83 "Hg (Jul 2, 4:00 PM)
Average76 °F62%30.03 "Hg
* Reported Jun 21 2:00 AM — Jul 6 2:00 AM, Cuiabá, Weather by CustomWeather, © 2015

Note: Actual official high and low records may vary slightly from our data, if they occured in-between our weather recording intervals... More about our weather records

Advertising

Cuiabá weather history for previous 24 hours

 ConditionsComfort  
Time TempWeatherWind HumidityBarometerVisibility
2:00 AM
Mon, Jul 6
63 °FClear.2 mph88%29.98 "Hg10 mi
1:00 AM63 °FClear.2 mph88%29.98 "Hg10 mi
12:00 AM64 °FClear.2 mph83%30.01 "Hg10 mi
11:00 PM
Sun, Jul 5
64 °FPassing clouds.No wind83%29.98 "HgN/A
10:00 PM63 °FPassing clouds.2 mph88%30.01 "HgN/A
9:00 PM64 °FPassing clouds.3 mph78%30.01 "HgN/A
8:00 PM64 °FPassing clouds.2 mph78%29.98 "HgN/A
7:00 PM64 °FPassing clouds.5 mph78%29.98 "HgN/A
6:00 PM64 °FPassing clouds.5 mph78%29.98 "HgN/A
5:00 PM64 °FPartly sunny.3 mph78%29.98 "HgN/A
4:00 PM66 °FBroken clouds.10 mph68%29.98 "HgN/A
3:00 PM64 °FOvercast.12 mph73%29.98 "HgN/A
2:00 PM64 °FOvercast.6 mph78%29.98 "HgN/A
1:00 PM63 °FLow clouds.7 mph83%30.01 "HgN/A
12:00 PM63 °FLow clouds.7 mph83%30.04 "HgN/A
11:00 AM63 °FLow clouds.7 mph83%30.07 "HgN/A
10:00 AM63 °FLow clouds.6 mph83%30.09 "HgN/A
9:00 AM61 °FLow clouds.3 mph83%30.09 "HgN/A
8:00 AM61 °FLow clouds.6 mph83%30.09 "Hg4 mi
7:00 AM61 °FFog.7 mph83%30.04 "Hg3 mi
6:00 AM61 °FFog.6 mph83%30.04 "Hg3 mi
5:00 AM59 °FFog.6 mph94%30.04 "Hg3 mi
4:00 AM59 °FFog.3 mph94%30.04 "Hg2 mi
3:00 AM61 °FFog.3 mph88%30.07 "Hg3 mi
Weather by CustomWeather, © 2015

See weather overviewHow to use our weather pages